Simultaneous Nadir Overpasses (SNOs) Predictions

Prediction of SNOs between NOAA-19 and METOP-C Satellite Orbit:

Table of predicted SNOs for the next 14.0 days since TLE Epoch: 5/11/2024
Index Date (NOAA-19) Time (NOAA-19) Lat,Lon (NOAA-19) SZA (NOAA-19 ) Date (METOP-C) Time (METOP-C) Lat,Lon (METOP-C) SZA (METOP-C ) Distance(km) Time Diff (sec)
1 05/21/2024 07:20:11 -79.87, -89.15 119.71 05/21/2024 07:21:12 -79.88, -89.00 119.67 3.19 61
2 05/21/2024 08:11:01 79.95, 79.06 60.43 05/21/2024 08:11:51 79.94, 78.91 60.42 3.09 50
3 05/21/2024 09:02:04 -80.00,-113.16 119.50 05/21/2024 09:02:30 -79.99,-113.30 119.52 3.11 26
4 05/21/2024 09:52:56 80.03, 54.46 60.55 05/21/2024 09:53:10 80.02, 54.33 60.53 2.85 14
5 05/21/2024 10:43:59 -80.07,-137.75 119.38 05/21/2024 10:43:49 -80.06,-137.88 119.41 2.86 10
6 05/21/2024 11:34:51 80.10, 29.87 60.66 05/21/2024 11:34:29 80.09, 29.75 60.64 2.60 22
7 05/21/2024 12:25:54 -80.14,-162.33 119.27 05/21/2024 12:25:08 -80.13,-162.46 119.30 2.60 46



Historial Predications of SNOs between NOAA-19 and METOP-C
